TimeEDT,TemperatureF,Dew PointF,Humidity,Sea Level PressureIn,VisibilityMPH,Wind Direction,Wind SpeedMPH,Gust SpeedMPH,PrecipitationIn,Events,Conditions,WindDirDegrees,DateUTC
12:54 AM,72.0,63.0,73,29.85,8.0,North,6.9,-,N/A,,Overcast,350,2008-08-08 04:54:00
1:54 AM,70.0,64.0,81,29.84,9.0,North,3.5,-,N/A,,Mostly Cloudy,360,2008-08-08 05:54:00
2:54 AM,68.0,63.0,84,29.84,9.0,North,3.5,-,N/A,,Clear,350,2008-08-08 06:54:00
3:54 AM,66.0,63.0,90,29.85,7.0,NNW,5.8,-,N/A,,Partly Cloudy,340,2008-08-08 07:54:00
4:54 AM,64.9,62.1,90,29.85,6.0,NNW,5.8,-,N/A,,Scattered Clouds,330,2008-08-08 08:54:00
5:54 AM,66.0,60.1,81,29.85,10.0,North,6.9,-,N/A,,Clear,350,2008-08-08 09:54:00
6:54 AM,64.9,59.0,81,29.87,10.0,Calm,Calm,-,N/A,,Clear,0,2008-08-08 10:54:00
7:54 AM,66.9,59.0,76,29.88,10.0,NE,3.5,-,N/A,,Clear,40,2008-08-08 11:54:00
8:54 AM,70.0,57.9,65,29.88,10.0,North,8.1,-,N/A,,Clear,350,2008-08-08 12:54:00
9:54 AM,73.0,55.9,55,29.89,10.0,NNW,9.2,-,N/A,,Partly Cloudy,340,2008-08-08 13:54:00
10:54 AM,75.0,53.1,46,29.89,10.0,NNW,10.4,18.4,N/A,,Partly Cloudy,340,2008-08-08 14:54:00
11:54 AM,75.9,50.0,40,29.89,10.0,North,13.8,18.4,N/A,,Partly Cloudy,350,2008-08-08 15:54:00
12:54 PM,78.1,46.9,33,29.89,10.0,North,17.3,21.9,N/A,,Clear,350,2008-08-08 16:54:00
1:54 PM,80.1,48.0,32,29.87,10.0,NNW,16.1,25.3,N/A,,Partly Cloudy,340,2008-08-08 17:54:00
2:54 PM,80.1,46.0,30,29.86,10.0,North,13.8,19.6,N/A,,Partly Cloudy,360,2008-08-08 18:54:00
3:54 PM,81.0,46.9,30,29.86,10.0,NW,13.8,18.4,N/A,,Clear,310,2008-08-08 19:54:00
4:54 PM,81.0,46.9,30,29.85,10.0,NW,15.0,-,N/A,,Clear,320,2008-08-08 20:54:00
5:54 PM,79.0,48.0,34,29.84,10.0,NNW,16.1,19.6,N/A,,Clear,330,2008-08-08 21:54:00
6:54 PM,78.1,48.9,36,29.85,10.0,NNW,12.7,19.6,N/A,,Clear,340,2008-08-08 22:54:00
7:54 PM,75.0,48.0,38,29.87,10.0,NNW,10.4,-,N/A,,Clear,340,2008-08-08 23:54:00
8:54 PM,72.0,48.0,43,29.88,10.0,NNW,6.9,-,N/A,,Clear,340,2008-08-09 00:54:00
9:54 PM,69.1,50.0,51,29.91,10.0,NNW,4.6,-,N/A,,Clear,330,2008-08-09 01:54:00
10:54 PM,69.1,50.0,51,29.92,10.0,North,4.6,-,N/A,,Clear,360,2008-08-09 02:54:00
11:54 PM,64.9,52.0,63,29.91,10.0,NNW,8.1,-,N/A,,Clear,340,2008-08-09 03:54:00